This is the latest recevied weather packets stored in our database for station/object F4LNO-10. If no packets are shown the sender has not sent any weather packets the latest 1 day(s).
| Time | Temp. | Humidity | Pressure | Rain* | Wind** | Luminosity | Snow |
|---|---|---|---|---|---|---|---|
| 1777746973 | 22.78° C | 44% | 1021.7 hPa | - | - | - | - |
| 1777746073 | 22.78° C | 45% | 1021.6 hPa | - | - | - | - |
| 1777745172 | 22.78° C | 44% | 1021.6 hPa | - | - | - | - |
| 1777744271 | 22.78° C | 46% | 1021.7 hPa | - | - | - | - |
| 1777743372 | 22.78° C | 46% | 1021.7 hPa | - | - | - | - |
| 1777742469 | 22.78° C | 45% | 1021.7 hPa | - | - | - | - |
| 1777741568 | 21.67° C | 48% | 1021.8 hPa | - | - | - | - |
| 1777740668 | 22.78° C | 46% | 1021.8 hPa | - | - | - | - |
| 1777739767 | 22.22° C | 47% | 1021.9 hPa | - | - | - | - |
| 1777738866 | 22.78° C | 45% | 1022 hPa | - | - | - | - |
| 1777737965 | 22.78° C | 44% | 1022.2 hPa | - | - | - | - |
| 1777737065 | 22.78° C | 45% | 1022.7 hPa | - | - | - | - |
| 1777736163 | 22.78° C | 43% | 1022.8 hPa | - | - | - | - |
| 1777735262 | 22.78° C | 45% | 1022.8 hPa | - | - | - | - |
| 1777734362 | 22.78° C | 44% | 1022.8 hPa | - | - | - | - |
| 1777733461 | 22.78° C | 47% | 1023 hPa | - | - | - | - |
| 1777732560 | 22.78° C | 44% | 1023.2 hPa | - | - | - | - |
| 1777731659 | 22.78° C | 45% | 1023.3 hPa | - | - | - | - |
| 1777730758 | 22.78° C | 45% | 1023.6 hPa | - | - | - | - |
| 1777729857 | 22.78° C | 46% | 1023.8 hPa | - | - | - | - |
| 1777728976 | 22.78° C | 47% | 1023.9 hPa | - | - | - | - |
| 1777728075 | 22.78° C | 46% | 1024.1 hPa | - | - | - | - |
| 1777727174 | 22.78° C | 45% | 1024.1 hPa | - | - | - | - |
| 1777726273 | 22.78° C | 46% | 1024.2 hPa | - | - | - | - |
| 1777725372 | 22.22° C | 45% | 1024.5 hPa | - | - | - | - |
* Rain since midnight (hover to see other rain measurements)
** Current wind speed in m/s (hover to see current wind gust speed)